Zurück zum Katalog

LCS 1

AktivWissenschaftMEO
NORAD 1361·PAYLOAD·🇺🇸 United States

Gestartet May 6, 1965 von Cape Canaveral Space Force Station

Loading…

Nächste Überflüge (nächste 24 Stunden)

TLE

AktuellSource: Space-Track

Epoche: Sep 14, 2026, 12:53 UTC

1 01361U 65034C   26257.53708561  .00000017  00000-0  11195-2 0  9993
2 01361  32.1454 324.8830 0011205  78.9990 281.1767  9.89310720218733

Verfolge LCS 1 in Echtzeit mit AllMySat

Download on the App Store